Location: Prairie View Elementary School
(39.8322°N, 99.5698°W)
Time: 05:09:06
(UTC+00:00)

Cosmos 1092 Rocket - Pass Details

Date: 08 December 2019
Orbit: 953 x 996 km, 83.0° (Epoch: 18 January)

Event Time Altitude Azimuth Distance (km) Brightness Sun altitude
Rises 00:20:05 0° 172° (S) 3,696 7.2 -12.5°
Reaches altitude 10° 00:22:38 10° 168° (SSE) 2,748 6.5 -13.0°
Maximum altitude 00:28:47 56° 92° (E) 1,160 4.1 -14.1°
Drops below altitude 10° 00:34:54 10° 16° (NNE) 2,743 6.0 -15.2°
Sets 00:37:27 0° 12° (NNE) 3,689 6.7 -15.7°
